Nassau, Bahamas

11:36 PM EST on November 23, 2017 (GMT -0500)
Nassau International

Weather History for MYNN - January, 2015

Change the Weather History Date:

Monday, January 12, 2015

  Actual Average Record
Temperature  
Mean Temperature 78 °F -  
Max Temperature 83 °F 77 °F 85 °F (2014)
Min Temperature 73 °F 62 °F 53 °F (2001)
Cooling Degree Days 13    
Growing Degree Days 28 (Base 50)    
Moisture  
Dew Point 73 °F    
Average Humidity 85    
Maximum Humidity 100    
Minimum Humidity 74    
Precipitation  
Precipitation 0.00 in 0.06 in - ()
Sea Level Pressure  
Sea Level Pressure 30.15 in    
Wind  
Wind Speed 9 mph ()    
Max Wind Speed 14 mph    
Max Gust Speed -    
Visibility 6.7 miles    
Events      
Averages and records for this station are not official NWS values.
T = Trace of Precipitation, MM = Missing Value Source: Averaged Metar Reports

Daily Weather History Graph

Daily Weather History Graph

Search for Another Location

Airport or City:

Trip Planner

Search our weather history database for the weather conditions in past years. The results will help you decide how hot, cold, wet, or windy it might be!

Date:

Astronomy

Jan. 12, 2015 Rise Set
Actual Time 6:56 AM EST 5:39 PM EST
Civil Twilight 6:32 AM EST 6:04 PM EST
Nautical Twilight 6:03 AM EST 6:32 PM EST
Astronomical Twilight 5:36 AM EST 7:00 PM EST
Moon No Moon Rise 11:23 AM EST (1/12)
Length of Visible Light 11h 32m
Length of Day
10h 42m
Waning Gibbous, 57% of the Moon is Illuminated
Jan 12
Waning Gibbous
Jan 13
Last Quarter
Jan 20
New
Jan 26
First Quarter
Feb 3
Full

Hourly Weather History & Observations

Time (EST) Temp. Heat Index Dew Point Humidity Pressure Visibility Wind Dir Wind Speed Gust Speed Precip Events Conditions
4:00 AM 76 °F - 75 °F 94% 30.17 in 9 mi East 11.5 mph - -   Mostly Cloudy
4:00 AM 75.2 °F - 75.2 °F 100% 30.17 in 6.2 mi East 11.5 mph - N/A   Mostly Cloudy
5:00 AM 75.2 °F - 68.0 °F 78% 30.18 in 6.2 mi East 12.7 mph - N/A   Mostly Cloudy
6:00 AM 75.2 °F - 69.8 °F 83% 0.30 in 6.2 mi East 8.1 mph - N/A   Scattered Clouds
7:00 AM 75 °F - 69 °F 78% 30.19 in 9 mi East 9.2 mph - -   Scattered Clouds
7:00 AM 75.2 °F - 69.8 °F 83% 30.19 in 6.2 mi East 9.2 mph - N/A   Scattered Clouds
8:00 AM 75.2 °F - 69.8 °F 83% 30.19 in 6.2 mi East 12.7 mph - N/A   Mostly Cloudy
9:00 AM 77.0 °F - 69.8 °F 78% 30.19 in 6.2 mi East 13.8 mph - N/A   Mostly Cloudy
10:00 AM 81 °F - 76 °F 82% 30.21 in 8 mi East 11.5 mph - -   Mostly Cloudy
10:00 AM 80.6 °F 87.1 °F 77.0 °F 89% 30.20 in 6.2 mi East 11.5 mph - N/A   Mostly Cloudy
11:00 AM 78.8 °F - 69.8 °F 74% 30.19 in 6.2 mi East 10.4 mph - N/A   Mostly Cloudy
12:00 PM 78.8 °F - 69.8 °F 74% 30.15 in 6.2 mi East 13.8 mph - N/A   Mostly Cloudy
1:00 PM 82 °F - 77 °F 80% 30.13 in 8 mi ESE 11.5 mph - -   Mostly Cloudy
1:00 PM 82.4 °F 90.9 °F 77.0 °F 84% 30.15 in 6.2 mi ESE 11.5 mph - N/A   Mostly Cloudy
2:00 PM 80.6 °F 84.6 °F 71.6 °F 74% 30.10 in 6.2 mi ESE 11.5 mph - N/A   Mostly Cloudy
3:00 PM 80.6 °F 84.6 °F 71.6 °F 74% 30.11 in 6.2 mi ESE 11.5 mph - N/A   Scattered Clouds
4:00 PM 81 °F - 78 °F 86% 30.11 in 8 mi SE 11.5 mph - -   Scattered Clouds
4:00 PM 80.6 °F 87.1 °F 77.0 °F 89% 30.11 in 6.2 mi SE 11.5 mph - N/A   Scattered Clouds
5:00 PM 78.8 °F - 71.6 °F 78% 30.11 in 6.2 mi SE 9.2 mph - N/A   Mostly Cloudy
6:00 PM 77.0 °F - 71.6 °F 83% 30.11 in 6.2 mi SE 4.6 mph - N/A   Mostly Cloudy
7:00 PM 77 °F - 77 °F 100% 30.12 in 7 mi SE 4.6 mph - -   Partly Cloudy
7:00 PM 77.0 °F - 77.0 °F 100% 30.12 in 6.2 mi SE 4.6 mph - N/A   Mostly Cloudy
8:00 PM 77.0 °F - 71.6 °F 83% 30.13 in 6.2 mi SE 6.9 mph - N/A   Mostly Cloudy
9:00 PM 77.0 °F - 71.6 °F 83% 30.14 in 6.2 mi SE 6.9 mph - N/A   Scattered Clouds
10:00 PM 77 °F - 77 °F 100% 30.14 in 7 mi SE 4.6 mph - -   Scattered Clouds
10:00 PM 77.0 °F - 77.0 °F 100% 30.14 in 6.2 mi SE 4.6 mph - N/A   Scattered Clouds
11:00 PM 75.2 °F - 71.6 °F 89% 30.12 in 6.2 mi SE 9.2 mph - N/A   Scattered Clouds